sat.trackr.live / text

‹ back to catalog

GLOBALSTAR M088

NORAD 37740 · 2011-033B

PAYLOAD ACTIVE UNKNOWN

§ Identity

Operator
Country
GLOB
Launch date
2011-07-13
Launch site
TYMSC
Launch vehicle
Mass (kg)
RCS (m²)
5.04

Purposes: comms

External: N2YO · Heavens-Above · Gunter

§ Orbital elements

Epoch: 2026-09-20T04:48:43.727040Z

Period
114.08 min
Inclination
52.0244°
Eccentricity
0.0000545
Mean motion
12.62270312 rev/d
Perigee alt
1,413.2 km
Apogee alt
1,414.0 km
Semi-major
7,791.7 km
B*
6.9103e-5
RAAN
349.8277°
Arg perigee
102.6477°
Mean anomaly
274.8658°
Rev number
70,049

§ Raw data

GLOBALSTAR M0881 37740U 11033B   26263.20050610 -.00000091  00000+0  69103-4 0  99952 37740  52.0244 349.8277 0000545 102.6477 274.8658 12.62270312700497

JSON: /api/v1/satellites/37740 · /tle

For live sub-satellite position, see the globe view (requires WebGL).

§ Visibility from observer

Set your observer location to see the next 7 days of passes ≥ 10°. The values pass through the URL so the page stays shareable.

No JS? Fill the form by hand. The geolocation button needs JavaScript.